EW5004 Weather Reports


Display with metric or nautical units.
time (UTC)temp
F
wind
direction
speed
MPH
gust
MPH
rain 1hr
in
rain 24hr
in
rain mn
in
humidity
%
barometer
mb
20260503214557 59 302 4.0 11.0 0.00 0.00 0.00 43 1011.2
20260503213120 59 338 6.0 14.0 0.00 0.00 0.00 43 1011.0
20260503211612 59 319 6.0 14.0 0.00 0.00 0.00 43 1011.1
20260503210041 60 311 6.0 18.0 0.00 0.00 0.00 41 1010.9
20260503204552 59 355 4.0 13.0 0.00 0.00 0.00 40 1011.0
20260503203035 60 340 8.0 16.0 0.00 0.00 0.00 36 1011.3
20260503201527 59 315 6.0 20.0 0.00 0.00 0.00 35 1011.5
20260503200023 60 38 7.0 21.0 0.00 0.00 0.00 34 1011.7
20260503194523 61 299 8.0 18.0 0.00 0.00 0.00 34 1011.8
20260503193014 60 16 8.0 19.0 0.00 0.00 0.00 35 1012.1
20260503191510 61 11 7.0 18.0 0.00 0.00 0.00 35 1012.4
20260503190006 61 343 6.0 24.0 0.00 0.00 0.00 36 1012.5
20260503184501 60 313 9.0 18.0 0.00 0.00 0.00 35 1012.6
20260503183106 60 324 7.0 17.0 0.00 0.00 0.00 36 1012.7
20260503181555 61 360 6.0 17.0 0.00 0.00 0.00 37 1013.0
20260503180049 60 342 7.0 19.0 0.00 0.00 0.00 36 1013.0
20260503174558 58 22 7.0 14.0 0.00 0.00 0.00 37 1013.2
20260503173039 58 332 8.0 17.0 0.00 0.00 0.00 37 1013.3
20260503171536 58 309 4.0 19.0 0.00 0.00 0.00 39 1013.5
20260503081601 31 242 1.0 4.0 0.00 0.00 0.00 7 1015.5
20260503071602 32 270 0.0 2.0 0.00 0.00 0.00 5 1015.6
20260503054526 32 287 1.0 2.0 0.00 0.00 0.00 8 1016.0
20260503053009 33 287 1.0 2.0 0.00 0.00 0.00 12 1016.1
20260503051504 33 287 1.0 2.0 0.00 0.00 0.00 19 1016.1
20260503050003 35 288 0.0 2.0 0.00 0.00 0.00 28 1016.2
20260503044557 35 288 1.0 3.0 0.00 0.00 0.00 32 1016.2
20260503043058 36 289 0.0 3.0 0.00 0.00 0.00 33 1016.2
20260503041554 36 290 0.0 2.0 0.00 0.00 0.00 34 1016.3
20260503040055 36 290 1.0 3.0 0.00 0.00 0.00 34 1016.4
20260503034553 36 291 0.0 3.0 0.00 0.00 0.00 36 1016.4
20260503033058 36 292 0.0 2.0 0.00 0.00 0.00 38 1016.4
20260503031548 36 293 0.0 2.0 0.00 0.00 0.00 41 1016.5
20260503030048 37 293 0.0 2.0 0.00 0.00 0.00 45 1016.6
20260503024549 37 293 0.0 2.0 0.00 0.00 0.00 49 1016.6
20260503023048 38 294 0.0 3.0 0.00 0.00 0.00 52 1016.8
20260503021542 38 292 0.0 0.0 0.00 0.00 0.00 54 1016.7
20260503020046 39 294 1.0 3.0 0.00 0.00 0.00 57 1016.6
20260503014544 40 298 0.0 4.0 0.00 0.00 0.00 58 1016.6
20260503013043 40 301 1.0 4.0 0.00 0.00 0.00 59 1016.6
20260503011549 40 286 2.0 5.0 0.00 0.00 0.00 59 1016.6
20260503010040 41 295 1.0 5.0 0.00 0.00 0.00 60 1016.6
20260503004638 41 301 2.0 5.0 0.00 0.00 0.00 60 1016.5
20260503003040 41 303 1.0 5.0 0.00 0.00 0.00 60 1016.5
20260503001538 41 329 2.0 4.0 0.00 0.00 0.00 60 1016.4
20260503000039 41 340 4.0 9.0 0.00 0.00 0.00 60 1016.5
20260502234548 42 303 4.0 10.0 0.00 0.00 0.00 60 1016.4
20260502233036 42 13 4.0 7.0 0.00 0.00 0.00 60 1016.4
20260502231536 42 355 4.0 8.0 0.00 0.00 0.00 60 1016.4
20260502230035 42 335 3.0 10.0 0.00 0.00 0.00 60 1016.4
20260502224535 42 360 6.0 9.0 0.00 0.00 0.00 58 1016.4
20260502223035 43 321 4.0 8.0 0.00 0.00 0.00 59 1016.4
20260502221534 43 299 2.0 10.0 0.00 0.00 0.00 60 1016.4